Location: ???? ??
(36.0534°N, 43.5630°E)
Time: 10:02:25
(UTC+00:00)

CZ-4 R/B - Pass Details

Date: 18 September 2019
Orbit: 531 x 599 km, 97.8° (Epoch: 22 October)

Event Time Altitude Azimuth Distance (km) Brightness Sun altitude
Rises 16:28:13 0° 208° (SSW) 2,663 5.0 -16.6°
Reaches altitude 10° 16:31:10 10° 234° (SW) 1,785 4.4 -17.1°
Maximum altitude 16:33:16 14° 267° (W) 1,546 4.6 -17.6°
Drops below altitude 10° 16:35:23 10° 300° (WNW) 1,806 5.1 -18.0°
Sets 16:38:24 0° 326° (NW) 2,717 5.7 -18.6°
